Nausori, Fiji

9:19 PM +12 on February 18, 2018 (GMT +1200)
Nausori International

Weather History for NFNA - December, 2012

Change the Weather History Date:

Monday, December 10, 2012

  Actual Average Record
Temperature  
Mean Temperature 80 °F -  
Max Temperature 84 °F 86 °F - ()
Min Temperature 75 °F 74 °F - ()
Cooling Degree Days 14    
Growing Degree Days 30 (Base 50)    
Moisture  
Dew Point 76 °F    
Average Humidity 93    
Maximum Humidity 100    
Minimum Humidity 75    
Precipitation  
Precipitation 0.91 in 0.37 in - ()
Sea Level Pressure  
Sea Level Pressure 29.75 in    
Wind  
Wind Speed 1 mph ()    
Max Wind Speed 7 mph    
Max Gust Speed -    
Visibility 13.5 miles    
Events Rain    
T = Trace of Precipitation, MM = Missing Value Source: Averaged Metar Reports

Daily Weather History Graph

Daily Weather History Graph

Search for Another Location

Airport or City:

Trip Planner

Search our weather history database for the weather conditions in past years. The results will help you decide how hot, cold, wet, or windy it might be!

Date:

Astronomy

Dec. 10, 2012 Rise Set
Actual Time 6:22 AM +13 7:34 PM +13
Civil Twilight 5:58 AM +13 7:58 PM +13
Nautical Twilight 5:30 AM +13 8:26 PM +13
Astronomical Twilight 5:00 AM +13 8:56 PM +13
Moon 3:05 AM +13 (12/10) 4:08 PM +13 (12/10)
Length of Visible Light 13h 59m
Length of Day
13h 11m
Waning Crescent, 16% of the Moon is Illuminated
Dec 10
Waning Crescent
Dec 13
New
Dec 20
First Quarter
Dec 28
Full
Jan 5
Last Quarter

Hourly Weather History & Observations

Time (+13) Temp. Heat Index Dew Point Humidity Pressure Visibility Wind Dir Wind Speed Gust Speed Precip Events Conditions
12:00 AM 77.0 °F - 75.2 °F 94% 29.77 in 24.9 mi Calm Calm - N/A   Scattered Clouds
1:00 AM 77 °F - 77 °F 98% 29.76 in 12 mi Calm Calm - -   Partly Cloudy
1:00 AM 77.0 °F - 77.0 °F 100% 29.74 in 24.9 mi Calm Calm - N/A   Mostly Cloudy
2:00 AM 77.0 °F - 77.0 °F 100% 29.74 in 24.9 mi Calm Calm - N/A   Mostly Cloudy
3:00 AM 77.0 °F - 77.0 °F 100% 29.71 in 24.9 mi Calm Calm - N/A   Scattered Clouds
4:00 AM 77 °F - 77 °F 100% 29.71 in 12 mi Calm Calm - -   Partly Cloudy
4:00 AM 77.0 °F - 77.0 °F 100% 29.71 in 24.9 mi Calm Calm - N/A   Scattered Clouds
5:00 AM 75.2 °F - 75.2 °F 100% 29.71 in 24.9 mi Calm Calm - N/A   Mostly Cloudy
6:00 AM 75.2 °F - 75.2 °F 100% 29.71 in 24.9 mi Calm Calm - N/A   Mostly Cloudy
7:00 AM 76 °F - 76 °F 100% 29.74 in 12 mi Calm Calm - - Rain Light Rain Showers
7:00 AM 77.0 °F - 77.0 °F 100% 29.71 in 12.4 mi Calm Calm - N/A Rain Light Rain Showers
8:00 AM 77.0 °F - 75.2 °F 94% 29.74 in 24.9 mi Calm Calm - N/A   Mostly Cloudy
9:00 AM 78.8 °F - 75.2 °F 89% 29.77 in 24.9 mi Calm Calm - N/A   Mostly Cloudy
10:00 AM 84 °F - 77 °F 75% 29.79 in 31 mi ESE 5.8 mph - -   Partly Cloudy
10:00 AM 84.2 °F 94.1 °F 77.0 °F 79% 29.77 in 31.1 mi ESE 5.8 mph - N/A   Scattered Clouds
11:00 AM 84.2 °F 94.1 °F 77.0 °F 79% 29.77 in 18.6 mi ESE 5.8 mph - N/A Rain Light Rain Showers
1:00 PM 77 °F - 74 °F 89% 29.79 in 12 mi Calm Calm - - Rain Light Rain Showers
2:00 PM 78.8 °F - 77.0 °F 94% 29.74 in 18.6 mi SE 6.9 mph - N/A   Overcast
3:00 PM 78.8 °F - 75.2 °F 89% 29.74 in 28.0 mi Calm Calm - N/A   Overcast
4:00 PM 80 °F - 76 °F 84% 29.74 in 12 mi Calm Calm - - Rain Light Rain Showers
4:00 PM 78.8 °F - 75.2 °F 89% 29.74 in 28.0 mi Calm Calm - N/A   Overcast
5:00 PM 78.8 °F - 75.2 °F 89% 29.71 in 28.0 mi Calm Calm - N/A   Overcast
6:00 PM 80.6 °F 87.1 °F 77.0 °F 89% 29.71 in 28.0 mi NE 5.8 mph - N/A   Mostly Cloudy
7:00 PM 80.6 °F 87.1 °F 77.0 °F 89% 29.74 in 28.0 mi Calm Calm - N/A   Mostly Cloudy
8:00 PM 78.8 °F - 77.0 °F 94% 29.77 in 24.9 mi Calm Calm - N/A   Mostly Cloudy
10:00 PM 77 °F - 76 °F 95% 29.80 in 12 mi Calm Calm - - Rain Light Rain
11:00 PM 77.0 °F - 75.2 °F 94% 29.80 in 24.9 mi Calm Calm - N/A   Overcast